Flag for Germany Weather past 2 weeks in Nienburg (Weser), Lower Saxony, Germany

Now
34 °F

Chilly.


Feels Like: 26 °F
Forecast: 30 / 38 °F
Wind: 9 mph from Southwest

Location: Wunstorf Airport

Current Time: Feb 1, 2015 at 9:38:49 PM

Latest Report: Feb 1, 2015 at 8:20 PM


Visibility: 4 mi

Pressure: 29.30 "Hg

Humidity: 93%

Dew point: 32 °F

Location of Nienburg (Weser)Location

Historic Weather in Nienburg (Weser) — Graph

°F

Nienburg (Weser) temperature yesterday

Maximum temperature yesterday: 36 °F (at 12:20 PM)
Minimum temperature yesterday: 28 °F (at 1:20 AM)
Average temperature yesterday: 33 °F

Past Weeks' High & Low Weather Summary

 TemperatureHumidityPressure
High43 °F (Jan 28, 12:20 PM)100% (Jan 20, 6:20 AM)30.33 "Hg (Jan 20, 6:20 AM)
Low23 °F (Jan 21, 6:20 AM)70% (Jan 29, 3:20 AM)28.68 "Hg (Jan 30, 3:20 AM)
Average33 °F89%29.73 "Hg
* Reported Jan 17 8:20 PM — Feb 1 8:20 PM, Nienburg (Weser), Weather by CustomWeather, © 2014

Note: Actual official high and low records may vary slightly from our data, if they occured in-between our weather recording intervals... More about our weather records

Advertising

Nienburg (Weser) weather history for previous 24 hours

 ConditionsComfort  
Time TempWeatherWind HumidityBarometerVisibility
8:20 PM
Feb 1
34 °FChilly.9 mph93%29.30 "Hg4 mi
7:20 PM34 °FChilly.8 mph93%29.30 "Hg4 mi
6:20 PM36 °FChilly.6 mph87%29.27 "Hg5 mi
5:20 PM36 °FChilly.8 mph81%29.27 "HgN/A
4:20 PM36 °FChilly.5 mph81%29.24 "HgN/A
3:20 PM36 °FChilly.9 mph81%29.24 "HgN/A
2:20 PM36 °FChilly.7 mph81%29.24 "HgN/A
1:20 PM36 °FChilly.8 mph81%29.21 "HgN/A
12:20 PM36 °FChilly.9 mph81%29.21 "Hg5 mi
11:20 AM34 °FChilly.9 mph87%29.21 "Hg3 mi
10:20 AM34 °FChilly.7 mph87%29.18 "Hg4 mi
9:20 AM34 °FChilly.9 mph87%29.18 "Hg4 mi
8:20 AM34 °FChilly.10 mph87%29.15 "Hg5 mi
7:20 AM32 °FChilly.10 mph93%29.12 "Hg4 mi
6:20 AM32 °FChilly.9 mph93%29.12 "Hg4 mi
5:20 AM32 °FChilly.7 mph93%29.12 "Hg3 mi
4:20 AM32 °FChilly.7 mph93%29.09 "Hg4 mi
3:20 AM32 °FChilly.9 mph93%29.09 "Hg4 mi
2:20 AM32 °FChilly.9 mph93%29.09 "Hg4 mi
1:20 AM32 °FChilly.9 mph93%29.09 "Hg4 mi
12:20 AM32 °FChilly.10 mph93%29.09 "Hg5 mi
11:20 PM
Jan 31
32 °FChilly.13 mph93%29.06 "Hg5 mi
10:20 PM32 °FChilly.10 mph93%29.06 "Hg4 mi
9:20 PM34 °FChilly.9 mph87%29.06 "Hg4 mi
Weather by CustomWeather, © 2014

See weather overviewHow to use our weather pages